User: anonymous   Login
Location: Melbourne
(37.8170°S, 144.9670°E)
Time: 19:29:02
(UTC+11:00)
Language:

ADEOS Rocket - Orbit

View from above orbital plane
View from above orbital plane
View from above satellite
View from above satellite

Ground track
Ground track

The orbit data is extracted from the following two-line orbital elements,

1 24279U 96046C   17019.90848719 -.00000003 +00000-0 +44865-4 0  9998
2 24279 098.7336 342.3241 0299437 306.8452 112.1338 13.47073999004008
Epoch (UTC): 19 January 2017 21:48:13
Eccentricity: 0.0299437
inclination: 98.7336°
perigee height: 859 km
apogee height: 1306 km
right ascension of ascending node: 342.3241°
argument of perigee: 306.8452°
revolutions per day: 13.47073999
mean anomaly at epoch: 112.1338°
orbit number at epoch: 400

The dashed part of the orbit path shows where the satellite is in the earth's shadow,  

DLR